Regional Weather Roundup
Issued by NWS

Home | Current Version | Previous Version | Text Only | Print | Product List | Glossary Off
Versions: 1 2 3 4 5 6 7 8 9 10 11 12 13 14 15 16 17 18 19 20 21 22 23 24 25 26 27 28 29 30 31 32 33 34 35 36 37 38 39 40 41 42 43 44 45 46 47 48 49 50

000
ASUS43 KMKX 260900
RWRWI

WISCONSIN REGIONAL WEATHER ROUNDUP
NATIONAL WEATHER SERVICE MILWAUKEE/SULLIVAN WI
400 AM CDT SAT JUL 26 2014

NOTE: "FAIR" INDICATES FEW OR NO CLOUDS BELOW 12,000 FEET WITH NO
SIGNIFICANT WEATHER AND/OR OBSTRUCTIONS TO VISIBILITY.

WIZ001-002-006>008-014>016-023>028-261000-
NORTHWEST WISCONSIN

CITY           SKY/WX    TMP DP  RH WIND       PRES   REMARKS
SUPERIOR ARPT  CLOUDY    68  67  97 SW5       29.75S
ASHLAND        CLOUDY    69  66  90 SW5       29.76F
HAYWARD        CLOUDY    69  67  93 SW7       29.79F
SIREN          MOCLDY    70  68  93 SW6       29.79R
RICE LAKE      CLOUDY    69  66  91 S3        29.82S
LADYSMITH      CLOUDY    68  65  92 CALM      29.83F
EAU CLAIRE     CLOUDY    69  67  93 SW9       29.80F
MENOMONIE      CLOUDY    70  67  92 S7        29.81F
NEW RICHMOND   CLOUDY    71  70  97 S6        29.80F
OSCEOLA        CLOUDY    71  71 100 S3        29.81F
$$

WIZ003>005-009-010-017-018-261000-
NORTH CENTRAL WISCONSIN

CITY           SKY/WX    TMP DP  RH WIND       PRES   REMARKS
WOODRUFF       CLOUDY    64  62  92 SW6       29.82S FOG
RHINELANDER    LGT RAIN  63  62  97 SW8       29.83S FOG
EAGLE RIVER    RAIN      64  64  99 SW3       29.82S
LAND O LAKES   CLOUDY    65  63  91 SW6       29.82F THUNDER
PHILLIPS       CLOUDY    65  64  97 SW8       29.81S
TOMAHAWK       CLOUDY    63  62  94 CALM      29.83F
MEDFORD        CLOUDY    64  63  97 SW7       29.83F FOG
MERRILL        CLOUDY    65  63  94 SW5       29.83F
$$

WIZ029-030-035-036-043>047-261000-
CENTRAL WISCONSIN

CITY           SKY/WX    TMP DP  RH WIND       PRES   REMARKS
WAUSAU         CLOUDY    65  62  90 SW3       29.82F
MOSINEE        CLOUDY    63  63 100 S5        29.84F
MARSHFIELD     CLOUDY    65  63  93 SW5       29.83F
STEVENS POINT  CLOUDY    62  60  93 CALM      29.85R
WAUPACA        MOCLDY    64  63  94 W3        29.84S
WAUTOMA        NOT AVBL
WISC RAPIDS    CLOUDY    66  63  90 SW7       29.84F
CAMP DOUGLAS   NOT AVBL
$$

WIZ011>013-019>022-031-037>040-048>050-261000-
NORTHEAST WISCONSIN

CITY           SKY/WX    TMP DP  RH WIND       PRES   REMARKS
ANTIGO         CLOUDY    63  62  96 SW7       29.84F
STURGEON BAY   PTCLDY    64  59  82 S5        29.83F
GREEN BAY      CLOUDY    65  62  90 S3        29.82F
MANITOWOC      PTCLDY    64  61  88 SW5       29.84F
APPLETON       CLEAR     63  61  94 S7        29.84F
CLINTONVILLE   CLOUDY    64  61  88 CALM      29.84R
OSHKOSH        CLEAR     63  61  93 S7        29.83F FOG
$$

WIZ032>034-041-042-053>061-261000-
SOUTHWEST WISCONSIN

CITY           SKY/WX    TMP DP  RH WIND       PRES   REMARKS
LA CROSSE      CLOUDY    69  65  86 S7        29.82F
SPARTA         CLOUDY    66  64  92 SW3       29.85S
VIROQUA        CLOUDY    64  64 100 S3        29.86F
BOSCOBEL       CLOUDY    67  62  84 CALM      29.84F
PRAIRIE DU CHI CLOUDY    66  62  87 E3        29.83F
PLATTEVILLE    CLOUDY    65  63  91 E5        29.86F
$$

WIZ056-057-062-063-064-067-068-261000-
SOUTH CENTRAL WISCONSIN

CITY           SKY/WX    TMP DP  RH WIND       PRES   REMARKS
BARABOO/DELLS  CLOUDY    65  60  83 SW8       29.84F
LONE ROCK      NOT AVBL
WATERTOWN      CLOUDY    60  59  99 SE3       29.86F
MADISON        CLOUDY    67  61  81 CALM      29.86F
MIDDLETON      CLOUDY    65  63  93 CALM      29.87F
MONROE         CLOUDY    64  61  88 S7        29.86F
JANESVILLE     CLOUDY    68  59  73 S5        29.85F
$$

WIZ051-052-058>065-066-070>072-261000-
SOUTHEAST WISCONSIN

CITY           SKY/WX    TMP DP  RH WIND       PRES   REMARKS
MILWAUKEE      PTCLDY    64  59  83 SW3       29.86F
WAUKESHA       CLEAR     59  55  88 CALM      29.89S
MILWAUKEE/TIMM CLEAR     61  57  88 CALM      29.87F
RACINE         CLEAR     61  58  90 CALM      29.88F
BURLINGTON     MOCLDY    57  57  98 CALM      29.87F FOG
KENOSHA        MOCLDY    59  58  96 CALM      29.87F
FOND DU LAC    CLEAR     62  59  90 SW7       29.84F
SHEBOYGAN      CLEAR     62  59  90 SW7       29.84F
WEST BEND      CLEAR     61  55  82 SW3       29.86F
JUNEAU         CLEAR     61  58  91 S3        29.87F FOG
$$

LSZ147-162-261000-
LAKE SUPERIOR

STATION/POSITION TIME  TEMP    WIND        PRES    WAVE
                       AIR SEA DIR/SP/G            HT/PER
                 (UTC) (F)     (DEG/KT/KT) (MB)    (FT/S)
W MID LAKE BUOY  0750   54 48  160/  4/  6 1007.4F   0
PORT WING        0800   70     190/  3/  4 1007.8S
SAXON HARBOR     0800          190/  3/  8 1007.8F
$$

LMZ867-665-643>646-261000-
LAKE MICHIGAN

STATION/POSITION TIME  TEMP    WIND        PRES    WAVE
                       AIR SEA DIR/SP/G            HT/PER
                 (UTC) (F)     (DEG/KT/KT) (MB)    (FT/S)
N MID LAKE BUOY  0750   59 56  220/ 12/ 14 1009.3F   2/ 5
NORTHPORT PIER   0800   62     150/  4/  5 1009.8F
KEWAUNEE LAKESHO 0800   54     180/  6/  7 1011.3F
SHEBOYGAN LAKESH 0800   67     250/  9/ 10 1011.2F
PORT WASHINGTON  0800   65     260/  4/  6 1011.9F
ATWATER BUOY     0800   65     240/  8     1012.5F
MILWAUKEE LAKESH 0800   66     230/  7/  9   N/A
S MID LAKE BUOY  0750   63 61  190/  8/ 10 1011.8F   1
KENOSHA   LAKESH 0800   65     220/  4/  7 1011.2F
$$

TC  - TEMPERATURE IN CELSIUS
VSB - VISIBILITY IN STATUTE MILES
WCI - WIND CHILL INDEX
HX  - HEAT INDEX



USA.gov is the U.S. government's official web portal to all federal, state and local government web resources and services.